Regional Weather Roundup
Issued by NWS

Home | Current Version | Previous Version | Text Only | Print | Product List | Glossary Off
Versions: 1 2 3 4 5 6 7 8 9 10 11 12 13 14 15 16 17 18 19 20 21 22 23 24 25 26 27 28 29 30 31 32 33 34 35 36 37 38 39 40 41 42 43 44 45 46 47 48 49 50

000
ASUS43 KMPX 100101
RWRMN
WEATHER ROUNDUP FOR MINNESOTA
NATIONAL WEATHER SERVICE TWIN CITIES/CHANHASSEN MN
800 PM CDT WED JUL 09 2014


NOTE: "FAIR" INDICATES FEW OR NO CLOUDS BELOW 12,000 FEET WITH NO
SIGNIFICANT WEATHER AND/OR OBSTRUCTIONS TO VISIBILITY. N/A MEANS
CURRENT SKY AND/OR WEATHER CONDITIONS ARE NOT AVAILABLE.

MNZ060>063-068>070-100200-
   Twin Cities Metro

CITY           SKY/WX    TMP DP  RH WIND       PRES   REMARKS
TWIN CITIES    PTCLDY    76  51  41 NE7       29.98S
ST PAUL        CLEAR     74  55  51 E6        29.98S
CRYSTAL        MOCLDY    77  53  43 NE3       29.97S
LAKEVILLE      CLEAR     73  54  49 CALM      29.99S
EDEN PRAIRIE   CLEAR     77  50  38 CALM      29.97S
SOUTH ST PAUL  CLEAR     75  53  45 E3        29.98S
LAKE ELMO      FAIR      73  55  53 CALM      30.00S
$$
MNZ001>005-007-008-013>017-022>024-027-028-100200-
   Northwest Minnesota

CITY           SKY/WX    TMP DP  RH WIND       PRES   REMARKS
BEMIDJI        SUNNY     68  53  58 N3        29.99S
HALLOCK        SUNNY     72  46  40 CALM      29.97S
ROSEAU         SUNNY     70  54  56 W5        29.97F
WARROAD        MOSUNNY   70  55  60 W3        29.97F
THIEF RVR FALL MOSUNNY   72  48  43 CALM      29.98F
CROOKSTON      SUNNY     72  50  46 W3        29.99S
FOSSTON        SUNNY     73  52  46 CALM      30.00S
DETROIT LAKES  SUNNY     70  50  49 NW3       30.01S
MOORHEAD       SUNNY     73  48  40 NE6       29.99S
PARK RAPIDS    SUNNY     71  51  49 W6        29.99S
$$
MNZ006-009>011-018-025>026-100200-
   North Central Minnesota

CITY           SKY/WX    TMP DP  RH WIND       PRES   REMARKS
BAUDETTE       SUNNY     69  52  54 CALM      29.99S
FLAG ISLAND    SUNNY     68  54  60 S6        29.96S
INTL FALLS     SUNNY     69  48  47 E5        29.98S
LONGVILLE      CLEAR     68  54  60 CALM      29.99F
GRAND RAPIDS   PTCLDY    70  57  64 CALM      30.00S
CRANE LAKE     CLEAR     66  50  55 CALM      30.00F
ORR            CLEAR     64  52  63 CALM      29.97S
COOK           CLEAR     66  52  59 CALM      30.00S
$$
MNZ012-019>021-037-100200-
   Northeast Minnesota

CITY           SKY/WX    TMP DP  RH WIND       PRES   REMARKS
DULUTH         PTCLDY    68  50  52 E5        30.00R
ELY            CLEAR     66  45  45 CALM      30.01R
HIBBING        PTCLDY    72  49  44 CALM      29.99S
EVELETH        CLEAR     68  46  45 CALM      30.01R
DULUTH HARBOR  CLEAR     63  55  77 N7        29.99S
TWO HARBORS    CLEAR     64  50  59 CALM      29.98S
SILVER BAY     CLEAR     61  54  77 CALM      29.98S
GRAND MARAIS     N/A     49  42  77 W5        29.99S
G MARAIS ARPRT PTCLDY    61  43  51 CALM      30.02S
$$
MNZ029>031-032-039>041-046>048-054>057-064-100200-
   West Central Minnesota

CITY           SKY/WX    TMP DP  RH WIND       PRES   REMARKS
FERGUS FALLS   SUNNY     72  48  43 CALM      29.99S
WHEATON        SUNNY     73  52  46 CALM      30.00S
MORRIS         SUNNY     72  55  56 N3        29.98F
ALEXANDRIA     SUNNY     73  47  39 NW5       30.02S
WADENA         SUNNY     70  54  56 W3        30.00S
GLENWOOD       SUNNY     72  52  49 NW5       30.01S
APPLETON       SUNNY     77  54  44 CALM      29.98F
BENSON         SUNNY     73  55  53 CALM      29.99S
ORTONVILLE     SUNNY     75  52  43 NE5       29.99S
MADISON        SUNNY     75  55  50 N5        29.99S
WILLMAR        FAIR      73  52  46 N5        30.01S
$$
MNZ033>034-036-042>043-049>051-058-059-100200-
   Central Minnesota

CITY           SKY/WX    TMP DP  RH WIND       PRES   REMARKS
ST CLOUD       PTCLDY    77  53  43 CALM      29.98S
SAUK CENTRE    FAIR      72  50  45 W5        30.00S
PAYNESVILLE    CLEAR     69  51  53 SW5       30.00S
AITKIN         CLEAR     72  55  56 CALM      29.98S
PINE RIVER     CLEAR     72  54  53 CALM      30.02S
BRAINERD       CLEAR     78  49  35 CALM      29.99S
STAPLES        SUNNY     72  50  46 NW3       29.99F
LONG PRAIRIE   FAIR      72  50  46 W3        30.01S
LITTLE FALLS   CLEAR     73  45  35 W3        29.99S
LITCHFIELD     CLEAR     75  50  41 NW5       30.00S
BUFFALO        CLEAR     76  50  40 CALM      29.99S
MAPLE LAKE     CLEAR     73  57  56 CALM      30.00S
$$
MNZ037-044-045-052-053-100200-
   East Central Minnesota

CITY           SKY/WX    TMP DP  RH WIND       PRES   REMARKS
PRINCETON      CLEAR     75  55  50 CALM      29.99S
MORA           CLEAR     70  52  52 CALM      30.01R
CAMBRIDGE      CLEAR     75  57  53 CALM      29.97S
RUSH CITY      CLEAR     72  51  48 CALM      29.99S
MOOSE LAKE     CLEAR     72  55  56 CALM      29.98S
HINCKLEY       FAIR      73  54  49 CALM      29.99S
CLOQUET        CLEAR     70  46  43 CALM      30.00S
MCGREGOR       CLEAR     72  52  49 CALM      30.00S
$$
MNZ071>073-080-081-089-090-097-098-100200-
   Southwest Minnesota

CITY           SKY/WX    TMP DP  RH WIND       PRES   REMARKS
MONTEVIDEO     SUNNY     77  54  44 NE6       30.00S
GRANITE FALLS  SUNNY     75  51  42 N5        30.00S
CANBY          SUNNY     74  55  50 NE3       30.00S
MARSHALL       SUNNY     75  52  43 MISG      29.99S
REDWOOD FALLS  CLEAR     77  53  43 N3        29.98S
OLIVIA         CLEAR     73  46  38 N5        29.99S
PIPESTONE      SUNNY     75  57  53 CALM      30.00S
WINDOM         PTCLDY    73  55  53 CALM      30.00S
WORTHINGTON    MOCLDY    73  59  60 NE5       30.02S
JACKSON        PTCLDY    73  55  53 NE3       30.01S
TRACY          CLEAR     74  57  54 N3        30.00S
SLAYTON        CLEAR     75  53  46 CALM      30.01S
$$
MNZ065>067-074>077-082>085-091>093-100200-
   South Central Minnesota

CITY           SKY/WX    TMP DP  RH WIND       PRES   REMARKS
MANKATO        CLEAR     75  48  38 NW7       29.99S
NEW ULM        CLEAR     75  54  46 CALM      29.98F
ST JAMES       CLEAR     75  55  50 CALM      29.99F
FAIRMONT       CLEAR     75  54  46 N3        29.99F
GLENCOE        CLEAR     77  48  35 NW3       29.98S
FARIBAULT      CLEAR     77  52  41 NE3       29.99S
OWATONNA       CLEAR     75  54  46 CALM      29.99S
WASECA         CLEAR     72  46  40 N5        30.01S
ALBERT LEA     CLEAR     75  54  46 CALM      29.99S
$$
MNZ078>079-086>088-094>096-100200-
   Southeast Minnesota

CITY           SKY/WX    TMP DP  RH WIND       PRES   REMARKS
ROCHESTER      CLEAR     71  59  65 E3        30.02S
RED WING       CLEAR     75  55  50 CALM      29.98S
STANTON        CLEAR     75  55  50 SE3       29.98S
DODGE CENTER   CLEAR     72  59  64 CALM      30.01S
WINONA         CLEAR     73  52  46 CALM      30.00S
AUSTIN         CLEAR     73  59  60 E3        30.00S
PRESTON        CLEAR     73  58  59 CALM      30.02S
$$
ABBREVIATIONS USED IN REMARKS
   TC - TEMPERATURES IN CELSIUS
  WCI - WIND CHILL INDEX
   HX - HEAT INDEX
  VSB - VISIBILITY
$$



USA.gov is the U.S. government's official web portal to all federal, state and local government web resources and services.